Погода в Кобе

Япония     34°45′28″N   135°07′15″E
темп.,
°C
ветер,
м/с
пор.,
м/с
влажн.,
%
обл.,
%
осадки,
мм/ч
давл.,
гПа
погр.,
м
27 января, ср
ср2700:00+14юз31098100 14.1 1014494
03:00+11св5118399 17.0 1014386
06:00+11ссв4981100 0.0 1015594
09:00+11с487681 0.1 1017851
12:00+12с7105410 0.0 10161314
15:00+11с7105653 0.1 10161202
18:00+9с69590 0.0 10171074
21:00+7ссв6116918 0.0 1018938
28 января, чт
чт2800:00+6ссв7126877 0.0 1018853
03:00+5ссв6117178 0.0 1017784
06:00+5ссв611713 0.0 1016693
09:00+6св36699 0.0 1014482
12:00+9ююз115380 0.0 1011697
15:00+10юз465682 0.0 1009615
18:00+9зюз611663 0.0 10071013
21:00+10зюз9156517 0.1 10061693
29 января, пт
пт2900:00+6з13184496 0.3 10072159
03:00+1з12174583 0.5 10091952
06:00−1з10164893 0.1 10092092
09:00−1з10164497 0.1 10121943
12:00+2з111638100 0.0 10122211
15:00+3зсз10153599 0.1 10132221
18:00+1зсз10154133 0.0 10161880
21:000зсз7135252 0.1 10191874
30 января, сб
сб3000:000зсз7125522 0.0 10211444
03:00+1зсз8125511 0.0 10221389
06:00+1зсз711562 0.0 10241099
09:00+2сз68561 0.0 1027708
12:00+5сз23470 0.0 10271026
15:00+6зсз354332 0.0 10271553
18:00+6сз353929 0.0 10281048
21:00+5сз254714 0.0 1029360
31 января, вс
вс3100:00+4з27530 0.0 1029385
03:00+3ссз115718 0.0 102875
06:00+3сз116134 0.0 102846
09:00+5ссв015617 0.0 1029134
12:00+9з465924 0.0 1027881
15:00+10зюз465534 0.0 10261121
18:00+9юз366310 0.0 1027526
21:00+8ююз25597 0.0 1027151